Hourly Data Report for October 24, 2016

All times are specified in Local Standard Time (LST). Add 1 hour to adjust for Daylight Saving Time where and when it is observed.

KITCHENER/WATERLOO
ONTARIO

43°27'39.000" N
80°22'43.000" W
321.60 m
6144239
71368
YKF

Download Data

Hourly Data (October 2016)
Hourly Data Report for October 24, 2016
Temp Definition
°C
Dew Point Temp Definition
°C
Rel Hum Definition
%
Wind Dir Definition
10's deg

Wind Spd Definition
km/h
Visibility Definition
km
Stn Press Definition
kPa
Hmdx Definition


Wind Chill Definition


Weather Definition


TIME
00:00 Legend Double Dagger 6.3 4.2 86 29 9 16.1 97.35     LegendNANA
01:00 Legend Double Dagger 7.4 5.4 87 31 11 16.1 97.43     LegendNANA
02:00 Legend Double Dagger 6.8 4.4 84 31 13 16.1 97.51     LegendNANA
03:00 Legend Double Dagger 7.0 4.7 85 30 9 16.1 97.57     LegendNANA
04:00 Legend Double Dagger 7.2 3.7 78 31 13 16.1 97.67     LegendNANA
05:00 Legend Double Dagger 6.7 2.3 74 32 17 16.1 97.75     LegendNANA
06:00 Legend Double Dagger 6.4 1.7 72 32 15 16.1 97.81     LegendNANA
07:00 Legend Double Dagger 6.2 1.6 72 30 11 16.1 97.87     LegendNANA
08:00 Legend Double Dagger 6.8 1.7 70 30 18 16.1 97.93     LegendNANA
09:00 Legend Double Dagger 7.2 1.9 69 32 26 16.1 98.03     LegendNANA
10:00 Legend Double Dagger 7.0 2.1 71 31 22 16.1 98.10     LegendNANA
11:00 Legend Double Dagger 7.5 0.8 62 32 24 16.1 98.13     LegendNANA
12:00 Legend Double Dagger 9.8 1.9 58 30 24 16.1 98.17     LegendNANA
13:00 Legend Double Dagger 8.8 -0.7 51 31 37 16.1 98.19     LegendNANA
14:00 Legend Double Dagger 9.1 0.4 54 29 32 16.1 98.23     LegendNANA
15:00 Legend Double Dagger 9.0 1.2 58 31 28 16.1 98.29     LegendNANA
16:00 Legend Double Dagger 9.2 1.0 56 31 24 16.1 98.31     LegendNANA
17:00 Legend Double Dagger 6.7 -1.3 57 31 26 16.1 98.39     LegendNANA
18:00 Legend Double Dagger 5.6 -0.4 65 31 26 16.1 98.43     LegendNANA
19:00 Legend Double Dagger 4.7 0.5 74 30 15 16.1 98.47     LegendNANA
20:00 Legend Double Dagger 4.2 0.8 79 31 11 16.1 98.52     LegendNANA
21:00 Legend Double Dagger 5.3 2.1 80 30 17 16.1 98.56     Rain
22:00 Legend Double Dagger 5.0 3.0 87 29 17 16.1 98.58     Rain
23:00 Legend Double Dagger 4.7 2.6 86 30 15 16.1 98.58     LegendNANA

Notes on Data Quality.

Legend

  • E = Estimated
  • M = Missing
  • NA = Not Available
  • ‡ = Partner data that is not subject to review by the National Climate Archives
Date modified: